Regional Weather Roundup
Issued by NWS

Home | Current Version | Previous Version | Graphics & Text | Print | Product List | Glossary On
Versions: 1 2 3 4 5 6 7 8 9 10 11 12 13 14 15 16 17 18 19 20 21 22 23 24 25 26 27 28 29 30 31 32 33 34 35 36 37 38 39 40 41 42 43 44 45 46 47 48 49 50
000
ASUS45 KABQ 290010
RWRNM
WEATHER ROUNDUP FOR NEW MEXICO
NATIONAL WEATHER SERVICE ALBUQUERQUE NM
600 PM MDT SAT MAR 28 2015

NOTE: "FAIR" MEANS FEW OR NO CLOUDS BELOW 12,000 FEET AGL WITH NO
       SIGNIFICANT WEATHER OR OBSTRUCTIONS TO VISION.

      THIS PRODUCT IS RELEASED AS TWO VERSIONS.  ONE VERSION NEAR
      THE TOP OF THE HOUR CONTAINING PRELIMINARY DATA FROM ALBUQUERQUE
      AND OTHER STATIONS.  A FINAL VERSION WITH ADDITIONAL DATA IS
      ISSUED ABOUT 10 MINUTES AFTER THE HOUR.

NMZ501-503-504-510>518-290100-
NORTHWEST PLATEAU/NORTHCENTRAL MOUNTAINS

CITY           SKY/WX    TMP DP  RH WIND       PRES   REMARKS
FARMINGTON     SUNNY     74  16  11 W14       30.10F
6HR MIN TEMP:  65; 6HR MAX TEMP:  77;

LOS ALAMOS     SUNNY     69  11  10 W17G23    30.19S
SANTA FE       SUNNY     75   8   7 W12       30.11S
6HR MIN TEMP:  67; 6HR MAX TEMP:  77;

TAOS           SUNNY     70  16  12 W14       30.17R
ANGEL FIRE     FAIR      62  17  17 W15G25    30.23R

$$
NMZ402-403-502-505>509-290100-
WESTCENTRAL MOUNTAINS/SOUTHWEST MOUNTAINS

CITY           SKY/WX    TMP DP  RH WIND       PRES   REMARKS
GALLUP         SUNNY     73   4   7 W21       30.19S
6HR MIN TEMP:  70; 6HR MAX TEMP:  76;

GRANTS         SUNNY     73   2   6 NW15G25   30.20R
SILVER CITY    SUNNY     77   0   5 W23G30    30.18S

$$
NMZ407-409-411-412-290100-
SOUTHERN DESERTS

CITY           SKY/WX    TMP DP  RH WIND       PRES   REMARKS
LORDSBURG      FAIR      82  10   6 W13G22    30.11S
DEMING         SUNNY     83  -1   4 W22G30    30.09S
6HR MIN TEMP:  77; 6HR MAX TEMP:  87;

LAS CRUCES     SUNNY     85   5   5 W15       30.08S
HOLLOMAN AFB   MOSUNNY   84  10   6 N1        30.03F
ALAMOGORDO     SUNNY     84  14   7 N7        30.05F
T OR C         SUNNY     84  11   6 S12       30.05S
6HR MIN TEMP:  76; 6HR MAX TEMP:  86;


$$
NMZ519>523-290100-
CENTRAL VALLEYS/CENTRAL HIGHLANDS

CITY           SKY/WX    TMP DP  RH WIND       PRES   REMARKS
ALBUQUERQUE    SUNNY     80  17   9 NW8       30.08S
6HR MIN TEMP:  68; 6HR MAX TEMP:  81;

DOUBLE EAGLE   SUNNY     77  10   8 SW8       30.11F
MORIARTY ARPT  FAIR      75  12   9 W14G23    30.14S
6HR MIN TEMP:  69; 6HR MAX TEMP:  77;

CLINES CORNERS SUNNY     71  15  11 W15G26    30.16S
6HR MIN TEMP:  66; 6HR MAX TEMP:  72;

BELEN          FAIR      81   5   5 W17G28    30.08R
6HR MIN TEMP:  69; 6HR MAX TEMP:  83;

SOCORRO        FAIR      83   6   5 NW14      30.06S
6HR MIN TEMP:  73; 6HR MAX TEMP:  85;


$$
NMZ524>526-539-540-290100-
SOUTHCENTRAL MOUNTAINS

CITY           SKY/WX    TMP DP  RH WIND       PRES   REMARKS
RUIDOSO        SUNNY     70  12  11 W9G22     30.22S

$$
NMZ527>531-290100-
NORTHEAST HIGHLANDS/NORTHEAST PLAINS

CITY           SKY/WX    TMP DP  RH WIND       PRES   REMARKS
LAS VEGAS      SUNNY     71  14  11 NW12      30.13R
6HR MIN TEMP:  65; 6HR MAX TEMP:  74;

RATON          SUNNY     75  14  10 W10       30.05R
6HR MIN TEMP:  68; 6HR MAX TEMP:  76;

CLAYTON        SUNNY     78  16   9 SW10      30.00S
6HR MIN TEMP:  76; 6HR MAX TEMP:  81;


$$
NMZ532>537-290100-
EASTCENTRAL PLAINS

CITY           SKY/WX    TMP DP  RH WIND       PRES   REMARKS
TUCUMCARI      SUNNY     82  15   8 VRB3      29.98S
6HR MIN TEMP:  79; 6HR MAX TEMP:  84;

CANNON AFB     SUNNY     81  24  12 W10       30.02S
6HR MIN TEMP:  78; 6HR MAX TEMP:  82;

CLOVIS AIRPORT SUNNY     79  21  11 CALM      30.02R

$$
NMZ028-029-538-290100-
SOUTHEAST PLAINS

CITY           SKY/WX    TMP DP  RH WIND       PRES   REMARKS
ROSWELL        SUNNY     87  18   8 NW7       29.98S
6HR MIN TEMP:  80; 6HR MAX TEMP:  88;

ARTESIA        SUNNY     86  23  10 N6        29.99R
CARLSBAD       SUNNY     87  25  10 SE6       29.97R
6HR MIN TEMP:  81; 6HR MAX TEMP:  90;

HOBBS          SUNNY     82  19   9 W12       30.01R


$$



USA.gov is the U.S. government's official web portal to all federal, state and local government web resources and services.